WXM80 ListenWXM80 Stop

You find our weather info also at:

UK Metoffice

WeatherCloud

Weather Underground

Northeastern Weather Network

AWEKAS

Citizen Weather Observer Program (CWOP)

HAMweather, WeatherForYou, PWS Weather


Weather Underground History page Text

Daily Summary for July 21, 2016 Units:  English    Metric   Both
« Previous Day
Next Day »
Daily Weekly Monthly Yearly Custom
  High: Low: Average:
Temperature: 94.4 °F 67.5 °F 79 °F
Dew Point: 70.4 °F 61.4 °F 65.9 °F
Humidity: 90 % 34 % 67 %
Wind Speed: 7.6 mph 0.0 mph 1.8 mph
Wind Gust: 13.8 mph - -
Wind:- - SW
Pressure: 30.15 in 29.99 in -
Precipitation: 0.00 in    
Historical Graphs
 
 
Tabular Data for July 21, 2016
Time Temperature Dew Point Pressure Wind Wind Speed Wind Gust Humidity Rainfall Rate (Hourly)
00:04 71.0 °F 62.3 °F 30.14 in Calm   1.2 mph 74 % 0.00 in
00:09 71.0 °F 62.3 °F 30.14 in SW 0.4 mph 1.2 mph 74 % 0.00 in
00:14 70.9 °F 62.2 °F 30.13 in SW 0.1 mph 1.2 mph 74 % 0.00 in
00:19 70.9 °F 62.6 °F 30.14 in Calm   1.2 mph 75 % 0.00 in
00:24 70.9 °F 62.6 °F 30.13 in Calm   1.2 mph 75 % 0.00 in
00:30 70.8 °F 62.5 °F 30.14 in SW 0.2 mph 1.2 mph 75 % 0.00 in
00:31 70.8 °F 62.5 °F 30.14 in Calm     75 % 0.00 in
00:39 70.7 °F 62.8 °F 30.13 in SW 0.3 mph 1.2 mph 76 % 0.00 in
00:45 70.7 °F 62.8 °F 30.14 in Calm   1.2 mph 76 % 0.00 in
00:50 70.7 °F 62.8 °F 30.14 in SW 0.2 mph 1.2 mph 76 % 0.00 in
00:55 70.6 °F 63.0 °F 30.14 in SW 0.1 mph 1.2 mph 77 % 0.00 in
01:00 70.6 °F 63.0 °F 30.13 in SW 0.1 mph 1.0 mph 77 % 0.00 in
01:05 70.6 °F 63.4 °F 30.14 in SW 0.2 mph   78 % 0.00 in
01:10 70.6 °F 63.4 °F 30.14 in SW 0.1 mph 1.2 mph 78 % 0.00 in
01:11 70.5 °F 63.3 °F 30.14 in Calm   1.2 mph 78 % 0.00 in
01:16 70.6 °F 63.4 °F 30.14 in SW 0.3 mph 1.2 mph 78 % 0.00 in
01:21 70.6 °F 63.8 °F 30.14 in SW 0.3 mph 2.3 mph 79 % 0.00 in
01:26 70.6 °F 63.8 °F 30.14 in SW 0.5 mph 1.2 mph 79 % 0.00 in
01:31 70.6 °F 64.1 °F 30.14 in SW 1.0 mph 2.3 mph 80 % 0.00 in
01:36 70.6 °F 64.1 °F 30.14 in SSW 0.9 mph 2.0 mph 80 % 0.00 in
01:41 70.5 °F 64.0 °F 30.13 in WSW 1.0 mph 2.3 mph 80 % 0.00 in
01:51 70.4 °F 63.9 °F 30.13 in SSW 1.1 mph 2.3 mph 80 % 0.00 in
01:57 70.4 °F 63.6 °F 30.13 in South 0.6 mph 3.5 mph 79 % 0.00 in
02:02 70.4 °F 63.9 °F 30.12 in South 0.8 mph 3.5 mph 80 % 0.00 in
02:07 70.4 °F 63.9 °F 30.12 in WSW 0.2 mph 3.5 mph 80 % 0.00 in
02:11 70.4 °F 63.9 °F 30.12 in WSW 0.6 mph 2.3 mph 80 % 0.00 in
02:16 70.4 °F 63.6 °F 30.12 in SSW 1.5 mph 2.3 mph 79 % 0.00 in
02:22 70.4 °F 63.9 °F 30.12 in WSW 1.2 mph 2.3 mph 80 % 0.00 in
02:27 70.3 °F 63.5 °F 30.12 in SW 1.4 mph 3.5 mph 79 % 0.00 in
02:29 70.3 °F 63.5 °F 30.12 in SW 1.1 mph 3.0 mph 79 % 0.00 in
02:34 70.2 °F 63.4 °F 30.12 in SW 0.6 mph 3.5 mph 79 % 0.00 in
02:40 70.2 °F 63.4 °F 30.12 in SSW 0.7 mph 1.2 mph 79 % 0.00 in
02:45 70.1 °F 63.3 °F 30.12 in SSW 0.7 mph 2.3 mph 79 % 0.00 in
02:50 70.0 °F 63.5 °F 30.12 in SW 0.7 mph 3.0 mph 80 % 0.00 in
02:55 69.9 °F 63.4 °F 30.12 in SW 0.7 mph 2.3 mph 80 % 0.00 in
03:00 69.9 °F 63.4 °F 30.12 in WSW 0.7 mph 2.0 mph 80 % 0.00 in
03:03 69.9 °F 63.4 °F 30.12 in WSW 0.5 mph 1.2 mph 80 % 0.00 in
03:08 69.8 °F 63.3 °F 30.12 in SW 0.9 mph 2.3 mph 80 % 0.00 in
03:13 69.8 °F 63.3 °F 30.12 in SW 0.9 mph 3.5 mph 80 % 0.00 in
03:18 69.7 °F 63.6 °F 30.12 in SW 1.5 mph 3.5 mph 81 % 0.00 in
03:23 69.6 °F 63.5 °F 30.11 in SW 0.5 mph 2.3 mph 81 % 0.00 in
03:28 69.6 °F 63.5 °F 30.11 in SW 0.6 mph 2.3 mph 81 % 0.00 in
03:33 69.5 °F 63.4 °F 30.11 in SW 0.9 mph 1.2 mph 81 % 0.00 in
03:38 69.5 °F 63.4 °F 30.11 in SW 0.9 mph 2.3 mph 81 % 0.00 in
03:41 69.4 °F 63.3 °F 30.10 in Calm   1.2 mph 81 % 0.00 in
03:46 69.4 °F 63.3 °F 30.11 in SSW 0.6 mph 3.5 mph 81 % 0.00 in
03:51 69.3 °F 63.6 °F 30.10 in SSW 1.4 mph 3.5 mph 82 % 0.00 in
03:56 69.3 °F 63.6 °F 30.11 in SSW 2.7 mph 3.5 mph 82 % 0.00 in
03:57 69.3 °F 63.6 °F 30.11 in SSW 2.3 mph 3.5 mph 82 % 0.00 in
04:01 69.2 °F 63.5 °F 30.11 in SSW 0.9 mph 3.5 mph 82 % 0.00 in
04:06 69.1 °F 63.7 °F 30.11 in SW 1.8 mph 4.0 mph 83 % 0.00 in
04:11 69.1 °F 63.7 °F 30.11 in SW 0.2 mph 1.2 mph 83 % 0.00 in
04:16 69.1 °F 63.7 °F 30.11 in SW 0.7 mph 3.0 mph 83 % 0.00 in
04:21 69.0 °F 63.6 °F 30.11 in Calm   1.2 mph 83 % 0.00 in
04:26 69.0 °F 63.6 °F 30.11 in West 0.3 mph 2.3 mph 83 % 0.00 in
04:31 68.9 °F 63.5 °F 30.12 in WSW 0.9 mph 3.5 mph 83 % 0.00 in
04:37 68.9 °F 63.5 °F 30.12 in WSW 0.9 mph 6.9 mph 83 % 0.00 in
04:42 68.9 °F 63.9 °F 30.12 in West 2.8 mph 5.8 mph 84 % 0.00 in
04:46 68.9 °F 63.9 °F 30.12 in WSW 0.9 mph 5.8 mph 84 % 0.00 in
04:51 68.8 °F 63.8 °F 30.12 in West 1.9 mph 3.5 mph 84 % 0.00 in
04:56 68.8 °F 63.8 °F 30.12 in West 1.0 mph 2.3 mph 84 % 0.00 in
05:01 68.8 °F 63.8 °F 30.12 in WSW 1.1 mph 2.3 mph 84 % 0.00 in
05:06 68.7 °F 63.7 °F 30.12 in WSW 0.7 mph 2.3 mph 84 % 0.00 in
05:12 68.6 °F 63.6 °F 30.12 in SSW 0.9 mph 2.3 mph 84 % 0.00 in
05:17 68.5 °F 63.5 °F 30.12 in WSW 0.7 mph 3.5 mph 84 % 0.00 in
05:20 68.5 °F 63.5 °F 30.12 in WSW 0.1 mph 1.2 mph 84 % 0.00 in
05:25 68.4 °F 63.7 °F 30.13 in WSW 1.6 mph 2.3 mph 85 % 0.00 in
05:30 68.3 °F 63.6 °F 30.13 in WSW 1.0 mph 2.3 mph 85 % 0.00 in
05:35 68.2 °F 63.5 °F 30.12 in Calm     85 % 0.00 in
05:40 68.1 °F 63.4 °F 30.12 in Calm   1.0 mph 85 % 0.00 in
05:46 68.0 °F 63.3 °F 30.12 in WSW 1.0 mph 2.0 mph 85 % 0.00 in
05:51 67.9 °F 63.2 °F 30.12 in WSW 0.5 mph 2.3 mph 85 % 0.00 in
05:56 67.8 °F 63.5 °F 30.12 in WSW 0.8 mph 2.3 mph 86 % 0.00 in
06:01 67.7 °F 63.4 °F 30.12 in WSW 0.2 mph 2.3 mph 86 % 0.00 in
06:02 67.7 °F 63.4 °F 30.13 in WSW 0.5 mph 2.3 mph 86 % 0.00 in
06:07 67.7 °F 63.7 °F 30.12 in WSW 0.1 mph 1.0 mph 87 % 0.00 in
06:12 67.6 °F 63.6 °F 30.13 in WSW 0.1 mph 1.2 mph 87 % 0.00 in
06:17 67.5 °F 63.8 °F 30.13 in Calm   2.3 mph 88 % 0.00 in
06:22 67.5 °F 63.8 °F 30.13 in WSW 0.8 mph 2.3 mph 88 % 0.00 in
06:27 67.5 °F 63.8 °F 30.13 in WSW 0.2 mph 2.3 mph 88 % 0.00 in
06:32 67.5 °F 63.8 °F 30.13 in WSW 0.3 mph 2.3 mph 88 % 0.00 in
06:38 67.6 °F 64.2 °F 30.14 in WSW 0.3 mph 3.5 mph 89 % 0.00 in
06:43 67.8 °F 64.4 °F 30.13 in Calm   3.5 mph 89 % 0.00 in
06:48 68.0 °F 64.6 °F 30.14 in WSW 1.5 mph 3.5 mph 89 % 0.00 in
06:53 68.3 °F 65.3 °F 30.14 in SW 0.4 mph 1.2 mph 90 % 0.00 in
06:58 68.6 °F 65.5 °F 30.14 in WNW 0.8 mph 2.3 mph 90 % 0.00 in
07:03 69.0 °F 65.9 °F 30.14 in WNW 0.8 mph 2.3 mph 90 % 0.00 in
07:08 69.4 °F 66.0 °F 30.15 in SW 0.4 mph 1.2 mph 89 % 0.00 in
07:13 69.9 °F 66.5 °F 30.15 in West 0.7 mph 3.5 mph 89 % 0.00 in
07:19 70.4 °F 67.0 °F 30.15 in West 2.8 mph 5.8 mph 89 % 0.00 in
07:24 70.9 °F 67.2 °F 30.14 in NW 0.5 mph 3.5 mph 88 % 0.00 in
07:30 71.4 °F 67.3 °F 30.14 in WNW 1.1 mph 3.5 mph 87 % 0.00 in
07:35 71.8 °F 67.4 °F 30.14 in NW 2.9 mph 4.6 mph 86 % 0.00 in
07:40 72.2 °F 67.4 °F 30.14 in SW 0.1 mph 3.5 mph 85 % 0.00 in
07:45 72.5 °F 67.7 °F 30.13 in SW 0.5 mph 2.3 mph 85 % 0.00 in
07:50 72.7 °F 67.6 °F 30.13 in SW 0.3 mph 2.0 mph 84 % 0.00 in
07:55 72.9 °F 67.4 °F 30.13 in SW 1.8 mph 3.5 mph 83 % 0.00 in
08:00 73.1 °F 67.6 °F 30.14 in SW 1.0 mph 3.0 mph 83 % 0.00 in
08:01 73.1 °F 67.6 °F 30.13 in SW 1.9 mph 3.5 mph 83 % 0.00 in
08:06 73.2 °F 67.4 °F 30.13 in SW 1.1 mph 3.0 mph 82 % 0.00 in
08:08 73.2 °F 67.4 °F 30.13 in SW 2.8 mph 3.5 mph 82 % 0.00 in
08:13 73.3 °F 67.5 °F 30.13 in SSW 1.2 mph 3.5 mph 82 % 0.00 in
08:18 73.4 °F 67.6 °F 30.13 in SW 0.4 mph 3.5 mph 82 % 0.00 in
08:23 73.5 °F 67.3 °F 30.13 in West 1.7 mph 3.5 mph 81 % 0.00 in
08:28 73.6 °F 67.4 °F 30.13 in WSW 0.8 mph 2.3 mph 81 % 0.00 in
08:31 73.7 °F 67.5 °F 30.13 in Calm   2.3 mph 81 % 0.00 in
08:36 73.8 °F 67.6 °F 30.13 in SSW 2.2 mph 3.5 mph 81 % 0.00 in
08:41 73.9 °F 67.3 °F 30.13 in SW 0.5 mph 3.5 mph 80 % 0.00 in
08:46 74.0 °F 67.8 °F 30.13 in WNW 3.0 mph 3.5 mph 81 % 0.00 in
08:51 74.0 °F 67.4 °F 30.13 in WSW 1.9 mph 3.5 mph 80 % 0.00 in
08:56 74.2 °F 67.3 °F 30.13 in West 0.1 mph 3.5 mph 79 % 0.00 in
09:02 74.4 °F 67.8 °F 30.13 in West 0.4 mph 1.0 mph 80 % 0.00 in
09:07 74.6 °F 68.7 °F 30.13 in NNW 0.4 mph 2.3 mph 82 % 0.00 in
09:12 74.8 °F 68.6 °F 30.13 in NNE 0.3 mph 3.5 mph 81 % 0.00 in
09:17 75.1 °F 68.1 °F 30.12 in WNW 0.7 mph 2.3 mph 79 % 0.00 in
09:21 75.2 °F 68.2 °F 30.13 in NW 0.9 mph 3.5 mph 79 % 0.00 in
09:26 75.3 °F 68.0 °F 30.13 in West 0.1 mph 2.3 mph 78 % 0.00 in
09:31 75.5 °F 68.2 °F 30.12 in NW 1.1 mph 3.5 mph 78 % 0.00 in
09:36 75.7 °F 68.0 °F 30.12 in SW 1.7 mph 3.5 mph 77 % 0.00 in
09:41 76.0 °F 67.9 °F 30.12 in West 3.3 mph 4.0 mph 76 % 0.00 in
09:47 76.3 °F 67.4 °F 30.12 in WSW 2.2 mph 3.5 mph 74 % 0.00 in
09:52 76.7 °F 67.0 °F 30.12 in NW 2.2 mph 6.9 mph 72 % 0.00 in
09:57 77.2 °F 67.5 °F 30.12 in SSW 3.3 mph 6.9 mph 72 % 0.00 in
09:58 77.3 °F 67.6 °F 30.12 in West 3.1 mph 5.8 mph 72 % 0.00 in
10:02 77.9 °F 68.5 °F 30.12 in NW 1.4 mph 6.9 mph 73 % 0.00 in
10:07 78.8 °F 68.2 °F 30.12 in West 3.9 mph 4.6 mph 70 % 0.00 in
10:12 79.7 °F 68.6 °F 30.12 in SW 0.9 mph 3.5 mph 69 % 0.00 in
10:17 80.7 °F 70.4 °F 30.12 in SW 1.8 mph 4.6 mph 71 % 0.00 in
10:22 81.6 °F 68.7 °F 30.11 in SW 2.9 mph 3.5 mph 65 % 0.00 in
10:27 82.4 °F 68.1 °F 30.12 in WNW 1.6 mph 4.0 mph 62 % 0.00 in
10:32 83.2 °F 69.3 °F 30.12 in WNW 2.1 mph 5.0 mph 63 % 0.00 in
10:42 84.6 °F 67.7 °F 30.12 in WSW 5.0 mph 6.9 mph 57 % 0.00 in
10:47 85.1 °F 68.7 °F 30.12 in SSW 2.6 mph 3.5 mph 58 % 0.00 in
10:52 85.7 °F 67.1 °F 30.11 in WNW 1.6 mph 4.6 mph 54 % 0.00 in
10:57 86.1 °F 67.5 °F 30.11 in SW 3.0 mph 5.0 mph 54 % 0.00 in
11:02 86.7 °F 68.6 °F 30.12 in West 2.4 mph 8.1 mph 55 % 0.00 in
11:07 87.3 °F 68.6 °F 30.12 in SW 2.0 mph 3.5 mph 54 % 0.00 in
11:12 87.6 °F 66.1 °F 30.12 in SW 3.5 mph 4.6 mph 49 % 0.00 in
11:17 88.0 °F 67.0 °F 30.12 in West 3.1 mph 3.5 mph 50 % 0.00 in
11:23 88.1 °F 66.5 °F 30.11 in WNW 2.3 mph 3.5 mph 49 % 0.00 in
11:28 88.3 °F 67.3 °F 30.11 in WSW 0.9 mph 3.5 mph 50 % 0.00 in
11:31 88.4 °F 66.8 °F 30.11 in West 4.2 mph 5.8 mph 49 % 0.00 in
11:36 88.8 °F 68.9 °F 30.11 in SW 1.3 mph 4.0 mph 52 % 0.00 in
11:41 89.0 °F 65.5 °F 30.11 in SSW 2.3 mph 3.5 mph 46 % 0.00 in
11:46 89.2 °F 65.1 °F 30.11 in WSW 2.0 mph 6.0 mph 45 % 0.00 in
11:51 89.6 °F 65.5 °F 30.12 in WSW 3.0 mph 7.0 mph 45 % 0.00 in
11:56 89.7 °F 65.6 °F 30.11 in WSW 2.0 mph 7.0 mph 45 % 0.00 in
12:01 90.1 °F 65.2 °F 30.11 in WNW 1.3 mph 2.0 mph 44 % 0.00 in
12:06 90.4 °F 65.5 °F 30.11 in SW 0.7 mph 2.3 mph 44 % 0.00 in
12:07 90.6 °F 65.7 °F 30.11 in SW 4.5 mph 5.8 mph 44 % 0.00 in
12:12 90.6 °F 63.7 °F 30.10 in WSW 3.8 mph 6.9 mph 41 % 0.00 in
12:17 90.6 °F 63.0 °F 30.10 in WSW 4.9 mph 8.0 mph 40 % 0.00 in
12:22 90.6 °F 64.4 °F 30.09 in SSW 3.3 mph 4.0 mph 42 % 0.00 in
12:27 90.8 °F 63.1 °F 30.09 in SSW 1.9 mph 5.0 mph 40 % 0.00 in
12:32 91.2 °F 64.9 °F 30.09 in SW 0.6 mph 2.3 mph 42 % 0.00 in
12:38 91.6 °F 64.6 °F 30.09 in West 2.9 mph 5.8 mph 41 % 0.00 in
12:43 92.0 °F 65.6 °F 30.09 in West 3.2 mph 5.8 mph 42 % 0.00 in
12:48 92.1 °F 63.6 °F 30.09 in SW 4.6 mph 8.1 mph 39 % 0.00 in
12:53 92.3 °F 65.2 °F 30.09 in WNW 0.7 mph 1.2 mph 41 % 0.00 in
12:58 92.4 °F 66.0 °F 30.09 in NW 1.7 mph 3.5 mph 42 % 0.00 in
13:03 92.7 °F 64.1 °F 30.09 in WNW 5.0 mph 6.9 mph 39 % 0.00 in
13:08 92.8 °F 63.5 °F 30.08 in WNW 3.2 mph 6.9 mph 38 % 0.00 in
13:13 92.9 °F 62.8 °F 30.08 in WSW 1.1 mph 6.0 mph 37 % 0.00 in
13:17 92.9 °F 63.6 °F 30.08 in West 2.2 mph 5.0 mph 38 % 0.00 in
13:23 93.3 °F 68.8 °F 30.08 in NW 4.9 mph 8.1 mph 45 % 0.00 in
13:26 93.5 °F 68.3 °F 30.08 in NE 1.5 mph 3.0 mph 44 % 0.00 in
13:32 93.6 °F 66.4 °F 30.08 in SSW 2.8 mph 5.0 mph 41 % 0.00 in
13:37 93.7 °F 67.8 °F 30.07 in North 1.9 mph 5.0 mph 43 % 0.00 in
13:40 93.7 °F 65.7 °F 30.07 in NNE 2.6 mph 5.8 mph 40 % 0.00 in
13:45 93.6 °F 64.2 °F 30.07 in SW 2.5 mph 5.8 mph 38 % 0.00 in
13:47 93.6 °F 64.2 °F 30.07 in WSW 2.3 mph 4.6 mph 38 % 0.00 in
13:49 93.7 °F 66.4 °F 30.07 in North 1.5 mph 5.0 mph 41 % 0.00 in
13:50 93.7 °F 66.4 °F 30.06 in NNE 3.0 mph 3.5 mph 41 % 0.00 in
13:51 93.8 °F 65.1 °F 30.07 in West 1.5 mph 3.5 mph 39 % 0.00 in
13:54 93.8 °F 65.1 °F 30.07 in NNE 2.4 mph 5.8 mph 39 % 0.00 in
13:55 93.7 °F 65.0 °F 30.06 in NNW 1.6 mph 4.6 mph 39 % 0.00 in
13:56 93.7 °F 66.4 °F 30.07 in WNW 2.6 mph 8.0 mph 41 % 0.00 in
14:02 93.8 °F 62.8 °F 30.06 in SSW 2.9 mph 4.6 mph 36 % 0.00 in
14:07 94.0 °F 62.2 °F 30.06 in West 2.3 mph 4.6 mph 35 % 0.00 in
14:12 94.3 °F 67.0 °F 30.06 in WNW 2.2 mph 3.5 mph 41 % 0.00 in
14:17 94.4 °F 61.7 °F 30.06 in West 2.9 mph 5.8 mph 34 % 0.00 in
14:22 94.4 °F 66.4 °F 30.06 in NW 0.6 mph 3.0 mph 40 % 0.00 in
14:27 94.4 °F 63.3 °F 30.06 in South 1.5 mph 4.6 mph 36 % 0.00 in
14:32 94.2 °F 62.4 °F 30.05 in West 1.5 mph 6.9 mph 35 % 0.00 in
14:37 94.0 °F 61.4 °F 30.06 in WSW 1.2 mph 3.5 mph 34 % 0.00 in
14:43 93.5 °F 62.5 °F 30.06 in WSW 0.3 mph 2.3 mph 36 % 0.00 in
14:48 92.9 °F 64.3 °F 30.06 in South 1.6 mph 4.0 mph 39 % 0.00 in
14:53 92.8 °F 62.7 °F 30.06 in West 1.9 mph 4.6 mph 37 % 0.00 in
14:58 92.9 °F 65.7 °F 30.05 in SW 0.9 mph 3.5 mph 41 % 0.00 in
15:03 92.9 °F 67.1 °F 30.05 in WSW 1.0 mph 3.5 mph 43 % 0.00 in
15:08 92.9 °F 67.8 °F 30.05 in SE 1.9 mph 3.5 mph 44 % 0.00 in
15:11 92.7 °F 68.2 °F 30.05 in South 0.6 mph 2.3 mph 45 % 0.00 in
15:16 91.4 °F 68.3 °F 30.05 in SE 4.0 mph 8.1 mph 47 % 0.00 in
15:21 90.8 °F 68.4 °F 30.05 in SE 0.6 mph 4.0 mph 48 % 0.00 in
15:26 90.7 °F 68.9 °F 30.04 in SSW 3.7 mph 4.6 mph 49 % 0.00 in
15:29 90.9 °F 68.5 °F 30.04 in SSW 5.8 mph 7.0 mph 48 % 0.00 in
15:34 90.7 °F 69.5 °F 30.05 in SSW 2.3 mph 5.8 mph 50 % 0.00 in
15:36 90.5 °F 68.7 °F 30.04 in SW 3.0 mph 5.8 mph 49 % 0.00 in
15:41 90.4 °F 69.8 °F 30.04 in SE 1.0 mph 3.5 mph 51 % 0.00 in
15:46 90.4 °F 69.8 °F 30.04 in South 1.4 mph 5.8 mph 51 % 0.00 in
15:57 90.4 °F 67.4 °F 30.04 in SSW 7.6 mph 12.7 mph 47 % 0.00 in
16:02 90.6 °F 68.2 °F 30.03 in South 1.8 mph 13.8 mph 48 % 0.00 in
16:07 90.8 °F 67.8 °F 30.03 in South 4.6 mph 10.0 mph 47 % 0.00 in
16:12 90.8 °F 67.8 °F 30.03 in South 1.1 mph 3.5 mph 47 % 0.00 in
16:17 90.6 °F 67.6 °F 30.03 in South 2.7 mph 8.1 mph 47 % 0.00 in
16:22 90.0 °F 69.4 °F 30.03 in WSW 2.3 mph 5.8 mph 51 % 0.00 in
16:27 89.5 °F 68.4 °F 30.03 in SSE 3.0 mph 6.9 mph 50 % 0.00 in
16:32 88.5 °F 69.2 °F 30.03 in South 4.3 mph 6.9 mph 53 % 0.00 in
16:36 88.4 °F 69.6 °F 30.04 in SE 1.2 mph 3.5 mph 54 % 0.00 in
16:41 88.3 °F 68.4 °F 30.04 in SW 2.7 mph 4.0 mph 52 % 0.00 in
16:47 88.1 °F 68.3 °F 30.04 in SSW 4.7 mph 10.4 mph 52 % 0.00 in
16:52 87.7 °F 68.4 °F 30.04 in SSE 3.0 mph 8.0 mph 53 % 0.00 in
16:57 87.5 °F 68.8 °F 30.04 in SSE 0.6 mph 2.3 mph 54 % 0.00 in
17:02 87.4 °F 68.7 °F 30.04 in SSW 1.3 mph 3.0 mph 54 % 0.00 in
17:07 87.4 °F 68.7 °F 30.03 in SE 1.4 mph 3.5 mph 54 % 0.00 in
17:12 87.4 °F 68.2 °F 30.03 in South 2.9 mph 8.1 mph 53 % 0.00 in
17:17 87.1 °F 67.3 °F 30.03 in SE 3.0 mph 6.0 mph 52 % 0.00 in
17:23 86.3 °F 67.2 °F 30.03 in SSE 2.9 mph 8.1 mph 53 % 0.00 in
17:28 86.0 °F 67.4 °F 30.03 in SE 2.9 mph 8.1 mph 54 % 0.00 in
17:33 85.5 °F 66.4 °F 30.03 in South 3.7 mph 8.1 mph 53 % 0.00 in
17:38 84.8 °F 66.3 °F 30.03 in SSE 3.7 mph 5.8 mph 54 % 0.00 in
17:43 84.3 °F 66.4 °F 30.03 in SSW 2.8 mph 8.1 mph 55 % 0.00 in
17:49 84.1 °F 66.7 °F 30.02 in SW 4.0 mph 10.4 mph 56 % 0.00 in
17:54 84.0 °F 66.6 °F 30.02 in SSW 1.4 mph 11.5 mph 56 % 0.00 in
17:59 84.0 °F 67.1 °F 30.02 in SSW 2.2 mph 8.0 mph 57 % 0.00 in
18:02 83.8 °F 65.9 °F 30.02 in SSW 3.0 mph 8.1 mph 55 % 0.00 in
18:07 83.6 °F 66.2 °F 30.02 in SSE 2.8 mph 6.9 mph 56 % 0.00 in
18:12 83.2 °F 65.9 °F 30.02 in SE 2.7 mph 8.1 mph 56 % 0.00 in
18:17 83.0 °F 66.2 °F 30.02 in South 2.3 mph 6.0 mph 57 % 0.00 in
18:22 82.9 °F 66.1 °F 30.02 in SSW 4.5 mph 11.5 mph 57 % 0.00 in
18:27 82.7 °F 65.9 °F 30.01 in SSE 2.3 mph 4.6 mph 57 % 0.00 in
18:32 82.6 °F 66.3 °F 30.01 in South 2.2 mph 5.8 mph 58 % 0.00 in
18:37 82.4 °F 66.1 °F 30.01 in SW 2.9 mph 4.6 mph 58 % 0.00 in
18:42 82.2 °F 66.0 °F 30.01 in South 2.2 mph 5.0 mph 58 % 0.00 in
18:47 82.0 °F 66.3 °F 30.01 in ESE 3.6 mph 6.9 mph 59 % 0.00 in
18:52 81.9 °F 66.6 °F 30.01 in SSW 3.9 mph 6.9 mph 60 % 0.00 in
18:57 81.7 °F 66.0 °F 30.00 in SSW 1.9 mph 4.6 mph 59 % 0.00 in
19:02 81.5 °F 66.3 °F 30.01 in SSW 2.2 mph 3.5 mph 60 % 0.00 in
19:07 81.3 °F 66.1 °F 30.01 in SSE 1.9 mph 5.0 mph 60 % 0.00 in
19:13 81.0 °F 65.8 °F 30.01 in WSW 2.3 mph 4.6 mph 60 % 0.00 in
19:18 80.7 °F 66.0 °F 30.01 in South 2.4 mph 8.1 mph 61 % 0.00 in
19:23 80.4 °F 65.7 °F 30.01 in SW 3.0 mph 7.0 mph 61 % 0.00 in
19:27 80.3 °F 65.6 °F 30.01 in SSE 2.2 mph 5.0 mph 61 % 0.00 in
19:32 80.2 °F 66.0 °F 30.01 in South 3.3 mph 6.9 mph 62 % 0.00 in
19:37 79.9 °F 65.7 °F 30.00 in South 2.7 mph 4.6 mph 62 % 0.00 in
19:42 79.7 °F 66.0 °F 30.00 in SSW 3.4 mph 6.0 mph 63 % 0.00 in
19:47 79.5 °F 65.8 °F 30.00 in SSW 1.2 mph 4.6 mph 63 % 0.00 in
19:51 79.3 °F 66.1 °F 30.01 in South 3.1 mph 4.0 mph 64 % 0.00 in
19:56 79.1 °F 65.9 °F 30.01 in SSW 2.9 mph 5.8 mph 64 % 0.00 in
20:01 78.9 °F 66.1 °F 30.01 in South 2.0 mph 4.6 mph 65 % 0.00 in
20:07 78.8 °F 66.0 °F 30.01 in SSE 2.7 mph 3.5 mph 65 % 0.00 in
20:12 78.6 °F 66.3 °F 30.00 in SSW 3.0 mph 4.6 mph 66 % 0.00 in
20:17 78.4 °F 66.1 °F 30.00 in SSW 2.0 mph 6.9 mph 66 % 0.00 in
20:22 78.2 °F 65.9 °F 30.00 in South 1.2 mph 2.3 mph 66 % 0.00 in
20:27 78.1 °F 65.8 °F 30.00 in South 3.1 mph 5.8 mph 66 % 0.00 in
20:32 78.0 °F 65.7 °F 30.00 in SSW 1.0 mph 3.5 mph 66 % 0.00 in
20:37 77.9 °F 65.6 °F 30.01 in South 2.3 mph 3.5 mph 66 % 0.00 in
20:42 77.8 °F 66.0 °F 30.01 in SSW 4.2 mph 5.8 mph 67 % 0.00 in
20:48 77.6 °F 65.8 °F 30.01 in SE 2.2 mph 4.6 mph 67 % 0.00 in
20:53 77.5 °F 65.7 °F 30.01 in South 3.3 mph 5.8 mph 67 % 0.00 in
20:57 77.4 °F 65.6 °F 30.01 in SSW 3.0 mph 10.0 mph 67 % 0.00 in
21:02 77.3 °F 65.5 °F 30.01 in South 1.3 mph 4.6 mph 67 % 0.00 in
21:07 77.2 °F 65.4 °F 30.01 in South 2.3 mph 11.5 mph 67 % 0.00 in
21:12 77.2 °F 65.8 °F 30.01 in SSW 2.7 mph 4.6 mph 68 % 0.00 in
21:17 77.1 °F 66.1 °F 30.01 in South 4.0 mph 4.0 mph 69 % 0.00 in
21:21 77.0 °F 66.0 °F 30.01 in South 1.7 mph 3.5 mph 69 % 0.00 in
21:27 77.0 °F 66.5 °F 30.01 in SW 1.7 mph 4.6 mph 70 % 0.00 in
21:32 76.9 °F 66.4 °F 30.01 in SSW 2.5 mph 5.0 mph 70 % 0.00 in
21:37 76.8 °F 66.7 °F 30.01 in SW 2.4 mph 3.5 mph 71 % 0.00 in
21:42 76.7 °F 66.6 °F 30.01 in SW 2.1 mph 3.5 mph 71 % 0.00 in
21:47 76.6 °F 66.9 °F 30.01 in SW 1.4 mph 4.6 mph 72 % 0.00 in
21:52 76.6 °F 66.9 °F 30.02 in South 3.0 mph 5.0 mph 72 % 0.00 in
21:57 76.5 °F 67.2 °F 30.01 in SSW 2.6 mph 3.5 mph 73 % 0.00 in
22:02 76.4 °F 67.5 °F 30.01 in SSE 2.1 mph 4.6 mph 74 % 0.00 in
22:07 76.4 °F 67.5 °F 30.01 in SW 1.9 mph 3.5 mph 74 % 0.00 in
22:12 76.3 °F 67.4 °F 30.01 in SW 3.2 mph 6.9 mph 74 % 0.00 in
22:16 76.2 °F 67.7 °F 30.01 in SE 1.5 mph 3.5 mph 75 % 0.00 in
22:21 76.1 °F 67.6 °F 30.01 in SSW 1.0 mph 6.9 mph 75 % 0.00 in
22:27 76.1 °F 67.6 °F 30.01 in South 2.0 mph 8.1 mph 75 % 0.00 in
22:32 76.0 °F 67.9 °F 30.01 in SSW 3.5 mph 3.5 mph 76 % 0.00 in
22:33 76.0 °F 67.9 °F 30.01 in SW 3.2 mph 4.6 mph 76 % 0.00 in
22:38 76.0 °F 67.9 °F 30.01 in WSW 1.6 mph 3.5 mph 76 % 0.00 in
22:43 75.9 °F 67.8 °F 30.01 in SSW 1.8 mph 3.5 mph 76 % 0.00 in
22:49 75.9 °F 68.2 °F 30.00 in WNW 0.5 mph 3.5 mph 77 % 0.00 in
22:51 75.8 °F 68.1 °F 30.00 in SSW 1.2 mph 3.5 mph 77 % 0.00 in
22:57 75.7 °F 68.0 °F 30.00 in SSW 3.1 mph 3.5 mph 77 % 0.00 in
23:02 75.7 °F 68.4 °F 30.00 in SSW 1.0 mph 3.5 mph 78 % 0.00 in
23:07 75.6 °F 68.3 °F 30.00 in South 2.3 mph 3.5 mph 78 % 0.00 in
23:12 75.6 °F 68.3 °F 30.00 in SW 2.5 mph 8.1 mph 78 % 0.00 in
23:17 75.5 °F 68.5 °F 30.00 in South 1.2 mph 4.0 mph 79 % 0.00 in
23:22 75.5 °F 68.5 °F 30.00 in SW 2.2 mph 5.0 mph 79 % 0.00 in
23:27 75.4 °F 68.4 °F 30.00 in SW 2.6 mph 3.5 mph 79 % 0.00 in
23:32 75.3 °F 68.3 °F 30.00 in SW 1.9 mph 5.0 mph 79 % 0.00 in
23:37 75.3 °F 68.3 °F 30.00 in SSW 1.6 mph 3.0 mph 79 % 0.00 in
23:42 75.3 °F 68.3 °F 30.00 in SW 2.0 mph 3.5 mph 79 % 0.00 in
23:43 75.2 °F 67.9 °F 30.00 in SW 2.4 mph 3.5 mph 78 % 0.00 in
23:48 75.2 °F 67.9 °F 29.99 in SSW 3.7 mph 5.8 mph 78 % 0.00 in
23:53 75.2 °F 67.9 °F 29.99 in South 0.6 mph 5.8 mph 78 % 0.00 in
23:58 75.1 °F 67.8 °F 29.99 in SSW 4.7 mph 10.0 mph 78 % 0.00 in
Crab Meadow Weather
Compliments of Weather Underground - 3 mb

Script developed by  Jim McMurry - jmcmurry@mwt.net Adapted for the template by  Wim van der Kuil - Leuven-Template.eu

Weather Terms: Downburst - A strong downdraft from a thunderstorm resulting in an outward burst of damaging winds on or near the ground. Downburst winds are often 50 to 100 mph and in a few cases, 100 to 150 mph. They can do as much damage as a small tornado.